Regional Weather Roundup
Issued by NWS

Home | Current Version | Previous Version | Graphics & Text | Print | Product List | Glossary On
Versions: 1 2 3 4 5 6 7 8 9 10 11 12 13 14 15 16 17 18 19 20 21 22 23 24 25 26 27 28 29 30 31 32 33 34 35 36 37 38 39 40 41 42 43 44 45 46 47 48 49 50
000
ASUS43 KMKX 251921
RWRWI

WISCONSIN REGIONAL WEATHER ROUNDUP
NATIONAL WEATHER SERVICE MILWAUKEE/SULLIVAN WI
200 PM CDT FRI JUL 25 2014

NOTE: "FAIR" INDICATES FEW OR NO CLOUDS BELOW 12,000 FEET WITH NO
SIGNIFICANT WEATHER AND/OR OBSTRUCTIONS TO VISIBILITY.

WIZ001-002-006>008-014>016-023>028-252000-
NORTHWEST WISCONSIN

CITY           SKY/WX    TMP DP  RH WIND       PRES   REMARKS
SUPERIOR ARPT  CLOUDY    69  62  78 CALM      29.79F
ASHLAND        CLOUDY    72  64  76 SW6       29.82S
HAYWARD        CLOUDY    69  63  81 S6        29.84S
SIREN          CLOUDY    73  65  76 SW5       29.82S
RICE LAKE      CLOUDY    68  63  82 SE7       29.86R
LADYSMITH      CLOUDY    69  63  81 S6        29.88R
EAU CLAIRE     CLOUDY    73  64  73 S12       29.84F
MENOMONIE      CLOUDY    71  65  81 SE7       29.84S
NEW RICHMOND   CLOUDY    75  65  71 SW13      29.82S
OSCEOLA        CLOUDY    75  67  76 SW9       29.84R
$$

WIZ003>005-009-010-017-018-252000-
NORTH CENTRAL WISCONSIN

CITY           SKY/WX    TMP DP  RH WIND       PRES   REMARKS
WOODRUFF       CLOUDY    72  65  78 CALM      29.89R
RHINELANDER    CLOUDY    67  60  78 SW9       29.89F
EAGLE RIVER    CLOUDY    66  58  75 SW8       29.88R
LAND O LAKES   CLOUDY    71  60  67 SW9       29.88R
PHILLIPS       CLOUDY    67  62  83 S7        29.87R
TOMAHAWK       CLOUDY    67  61  78 CALM      29.89R
MEDFORD        CLOUDY    64  61  88 S7        29.88F
MERRILL        CLOUDY    68  61  78 SW9       29.88F
$$

WIZ029-030-035-036-043>047-252000-
CENTRAL WISCONSIN

CITY           SKY/WX    TMP DP  RH WIND       PRES   REMARKS
WAUSAU         CLOUDY    68  60  75 SW12      29.87F
MOSINEE        CLOUDY    66  63  88 SW10      29.91S
MARSHFIELD     CLOUDY    67  61  81 S13       29.89S
STEVENS POINT  CLOUDY    66  58  76 SW12      29.90S
WAUPACA        PTSUNNY   73  59  60 S12G20    29.90F
WAUTOMA        CLOUDY    71  61  70 S8        29.92S
WISC RAPIDS    CLOUDY    67  60  78 S9        29.91F
CAMP DOUGLAS   CLOUDY    68  63  83 SW7       29.90R
$$

WIZ011>013-019>022-031-037>040-048>050-252000-
NORTHEAST WISCONSIN

CITY           SKY/WX    TMP DP  RH WIND       PRES   REMARKS
ANTIGO         CLOUDY    66  60  81 SW8       29.90F
STURGEON BAY   CLOUDY    72  55  56 SW12G21   29.92S
GREEN BAY      CLOUDY    69  57  65 SW13G22   29.92R
MANITOWOC      CLOUDY    69  58  67 S8        29.93S
APPLETON       PTSUNNY   68  55  64 SW15      29.93R
CLINTONVILLE   CLOUDY    70  59  68 S8        29.89F
OSHKOSH        CLOUDY    69  59  70 SW9       29.92R
$$

WIZ032>034-041-042-053>061-252000-
SOUTHWEST WISCONSIN

CITY           SKY/WX    TMP DP  RH WIND       PRES   REMARKS
LA CROSSE      CLOUDY    71  62  73 SE9       29.86F
SPARTA         CLOUDY    69  60  72 SW6       29.89F
VIROQUA        CLOUDY    68  62  81 SW7       29.91R
BOSCOBEL       CLOUDY    71  60  68 VRB3      29.90S
PRAIRIE DU CHI CLOUDY    70  61  73 S6        29.88F
PLATTEVILLE    CLOUDY    67  61  83 SE6       29.92S
$$

WIZ056-057-062-063-064-067-068-252000-
SOUTH CENTRAL WISCONSIN

CITY           SKY/WX    TMP DP  RH WIND       PRES   REMARKS
BARABOO/DELLS  CLOUDY    70  58  65 SW14      29.91R
LONE ROCK      CLOUDY    73  62  68 S7        29.91F
WATERTOWN      CLOUDY    67  60  80 S6        29.91F
MADISON        CLOUDY    70  58  65 S15G21    29.93S
MIDDLETON      CLOUDY    69  57  66 S12       29.93S
MONROE         CLOUDY    64  59  82 SW6       29.95S
JANESVILLE     PTSUNNY   73  55  53 SW13G18   29.94R
$$

WIZ051-052-058>065-066-070>072-252000-
SOUTHEAST WISCONSIN

CITY           SKY/WX    TMP DP  RH WIND       PRES   REMARKS
MILWAUKEE      LGT RAIN  70  57  63 SW13      29.94S
WAUKESHA       PTSUNNY   66  57  72 S7        29.95S
MILWAUKEE/TIMM CLOUDY    68  57  68 SW6       29.94F
RACINE         CLOUDY    71  56  58 W7        29.97R
BURLINGTON     CLOUDY    68  58  71 SW5       29.95R
KENOSHA        CLOUDY    70  58  65 SW10      29.96S
FOND DU LAC    CLOUDY    69  58  67 SW10      29.95R
SHEBOYGAN      CLOUDY    68  57  68 SW9       29.93F
WEST BEND      RAIN      64  59  82 S5        29.93F
JUNEAU         DRIZZLE   65  59  79 S3        29.94R
$$

LSZ147-162-252000-
LAKE SUPERIOR

STATION/POSITION TIME  TEMP    WIND        PRES    WAVE
                       AIR SEA DIR/SP/G            HT/PER
                 (UTC) (F)     (DEG/KT/KT) (MB)    (FT/S)
W MID LAKE BUOY  1850   55 50  220/  6/  8 1009.7R   1
PORT WING        1800   69      50/  4/  5 1009.8R
SAXON HARBOR     1800          200/  4/ 20 1009.5F
$$

LMZ867-665-643>646-252000-
LAKE MICHIGAN

STATION/POSITION TIME  TEMP    WIND        PRES    WAVE
                       AIR SEA DIR/SP/G            HT/PER
                 (UTC) (F)     (DEG/KT/KT) (MB)    (FT/S)
N MID LAKE BUOY  1850   60 56  210/ 14/ 16 1012.2F   3/ 4
NORTHPORT PIER   1800   66     150/  7/  9 1012.9S
KEWAUNEE LAKESHO 1900   56     180/ 10/ 11 1013.8F
SHEBOYGAN LAKESH 1900   65     180/ 15/ 15 1013.5F
PORT WASHINGTON  1800   64      40/  3/  4 1014.6S
ATWATER BUOY     1900   67     200/ 12     1014.6F
MILWAUKEE LAKESH 1900   68     220/ 11/ 14   N/A
S MID LAKE BUOY  1850   64 61  170/ 10/ 12 1014.7F   1/ 3
KENOSHA   LAKESH 1900   71     220/ 10/ 13 1013.9S
$$

TC  - TEMPERATURE IN CELSIUS
VSB - VISIBILITY IN STATUTE MILES
WCI - WIND CHILL INDEX
HX  - HEAT INDEX




USA.gov is the U.S. government's official web portal to all federal, state and local government web resources and services.